Weather History for KBJN - April, 2013

Change the Weather History Date:

Sunday, April 7, 2013

  Actual Average Record
Temperature  
Mean Temperature 52 °F -  
Max Temperature 66 °F - - ()
Min Temperature 37 °F - - ()
Degree Days  
Heating Degree Days 14    
Growing Degree Days 2 (Base 50)    
Moisture  
Dew Point 18 °F    
Average Humidity 28    
Maximum Humidity 53    
Minimum Humidity 9    
Precipitation  
Precipitation 0.00 in - - ()
Sea Level Pressure  
Sea Level Pressure 30.16 in    
Wind  
Wind Speed 10 mph (WSW)    
Max Wind Speed 23 mph    
Max Gust Speed 29 mph    
Visibility 10 miles    
Events      
T = Trace of Precipitation, MM = Missing Value Source: NWS Daily Summary

Daily Weather History Graph

Daily Weather History Graph

Search for Another Location

Airport or City:

Trip Planner

Search our weather history database for the weather conditions in past years. The results will help you decide how hot, cold, wet, or windy it might be!

Date:

Astronomy

Apr. 07, 2013 Rise Set
Actual Time 6:21 AM PDT 7:13 PM PDT
Civil Twilight 5:54 AM PDT 7:40 PM PDT
Nautical Twilight 5:22 AM PDT 8:11 PM PDT
Astronomical Twilight 4:50 AM PDT 8:44 PM PDT
Moon 4:38 AM PDT (4/7) 4:52 PM PDT (4/7)
Length of Visible Light 13h 45m
Length of Day
12h 52m
Waning Crescent, 7% of the Moon is Illuminated
Apr 7
Waning Crescent
Apr 10
New
Apr 18
First Quarter
Apr 25
Full
May 2
Last Quarter

Hourly Weather History & Observations

Time (PDT) Temp. Windchill Dew Point Humidity Pressure Visibility Wind Dir Wind Speed Gust Speed Precip Events Conditions
12:56 AM 37.0 °F 31.6 °F 21.0 °F 52% 30.26 in 10.0 mi West 6.9 mph - N/A   Clear
1:56 AM 45.0 °F - 21.9 °F 40% 30.26 in 10.0 mi Calm Calm - N/A   Clear
2:56 AM 43.0 °F 40.3 °F 21.9 °F 43% 30.26 in 10.0 mi Variable 4.6 mph - N/A   Clear
3:56 AM 46.0 °F 40.6 °F 23.0 °F 40% 30.25 in 10.0 mi WNW 11.5 mph 18.4 mph N/A   Clear
4:56 AM 39.0 °F 34.8 °F 21.9 °F 50% 30.26 in 10.0 mi SSE 5.8 mph - N/A   Clear
5:56 AM 37.9 °F 33.5 °F 21.9 °F 53% 30.25 in 10.0 mi West 5.8 mph - N/A   Clear
7:56 AM 46.9 °F - 24.1 °F 41% 30.26 in 10.0 mi SW 8.1 mph - N/A   Clear
8:56 AM 50.0 °F - 23.0 °F 35% 30.27 in 10.0 mi Variable 3.5 mph - N/A   Clear
9:56 AM 52.0 °F - 23.0 °F 32% 30.27 in 10.0 mi West 6.9 mph - N/A   Clear
10:56 AM 59.0 °F - 18.0 °F 20% 30.26 in 10.0 mi WNW 20.7 mph 26.5 mph N/A   Clear
11:56 AM 60.1 °F - 16.0 °F 18% 30.24 in 10.0 mi West 19.6 mph 27.6 mph N/A   Clear
12:56 PM 63.0 °F - 14.0 °F 15% 30.22 in 10.0 mi West 19.6 mph 25.3 mph N/A   Clear
1:56 PM 64.0 °F - 10.9 °F 13% 30.19 in 10.0 mi WSW 15.0 mph 23.0 mph N/A   Clear
2:56 PM 66.0 °F - 5.0 °F 9% 30.16 in 10.0 mi WSW 13.8 mph 24.2 mph N/A   Clear
3:56 PM 66.0 °F - 6.1 °F 9% 30.11 in 10.0 mi West 13.8 mph - N/A   Clear
4:56 PM 66.0 °F - 8.1 °F 10% 30.08 in 10.0 mi SW 17.3 mph 26.5 mph N/A   Clear
5:56 PM 63.0 °F - 12.0 °F 14% 30.06 in 10.0 mi SSW 23.0 mph 28.8 mph N/A   Clear
6:56 PM 61.0 °F - 12.0 °F 15% 30.05 in 10.0 mi SSW 17.3 mph - N/A   Clear
7:56 PM 59.0 °F - 19.9 °F 22% 30.05 in 10.0 mi WSW 17.3 mph 24.2 mph N/A   Clear
8:56 PM 57.9 °F - 24.1 °F 27% 30.03 in 10.0 mi WSW 18.4 mph - N/A   Clear
9:56 PM 55.9 °F - 24.1 °F 29% 30.01 in 10.0 mi WSW 11.5 mph - N/A   Clear
10:56 PM 53.1 °F - 19.0 °F 26% 29.97 in 10.0 mi West 11.5 mph - N/A   Clear
11:56 PM 53.1 °F - 26.1 °F 35% 29.92 in 10.0 mi WSW 11.5 mph - N/A   Clear